Location: ?????
(33.0776°N, 35.4546°E)
Time: 04:21:13
(UTC+00:00)

Daily predictions for brighter satellites

Satellite Brightness Start Highest point End
(mag) Time Altitude Azimuth Time Altitude Azimuth Time Altitude Azimuth
ADEOS Rocket 4.4 00:59:04 10° SE 01:03:47 30° ENE 01:08:28 10° N
COSMOS 2406 3.8 01:17:22 53° E 01:17:22 53° E 01:22:31 10° NNE
H-2A R/B 4.2 01:13:27 10° SE 01:15:25 23° ESE 01:15:25 23° ESE
Lacrosse 5 rocket 4.1 01:24:34 12° NE 01:24:34 12° NE 01:24:54 10° NE
NOSS 3-2 (C) 4.5 01:34:17 31° N 01:34:17 31° N 01:37:50 10° NNE
Cosmos 292 Rocket 4.2 01:44:25 40° N 01:46:00 61° ENE 01:50:47 10° SSE
CENTAUR R/B 3.3 01:48:26 33° NNW 01:48:26 33° NNW 01:53:09 10° NNE
CZ-4B R/B 4.0 01:48:50 10° ESE 01:51:32 21° ENE 01:54:13 10° NNE
CBERS 1 LM4 rocket 4.2 01:47:13 10° NNE 01:52:07 88° ESE 01:52:52 64° S
DELTA 2 R/B (1) 3.8 02:00:56 48° NW 02:02:22 65° NNE 02:07:56 10° E
Cosmos 1461 2.9 02:07:49 51° SSW 02:08:56 88° WNW 02:13:34 10° NNE
ERS-2 2.7 02:05:53 10° SSE 02:09:26 57° ENE 02:12:57 10° N
Cosmos 1331 Rocket 4.0 02:08:42 51° WNW 02:09:27 56° WSW 02:14:32 10° S
Nadezhda 4 Rocket 3.8 02:08:15 10° S 02:14:21 82° W 02:20:30 10° N
Cosmos 1908 3.1 02:11:58 22° N 02:14:23 87° W 02:18:17 10° S
SL-14 R/B 3.6 02:14:06 10° S 02:18:00 68° E 02:21:58 10° NNE
Cosmos 2180 Rocket 4.4 02:12:33 10° NNW 02:18:44 64° W 02:24:46 10° S
ALOS 2.1 02:18:32 10° N 02:23:12 77° WNW 02:27:51 10° SSW
Meteor 2-13 Rocket 4.5 02:18:03 10° S 02:24:12 83° E 02:30:21 10° N
Cosmos 1833 Rocket 2.8 02:21:36 26° SW 02:24:28 49° WNW 02:29:57 10° N
Meteor 1-24 Rocket 3.8 02:23:37 10° S 02:29:05 78° E 02:34:50 10° N
Lacrosse 4 Rocket 3.6 02:31:40 11° NNW 02:31:40 11° NNW 02:31:55 10° NNW
CZ-2C R/B 3.8 02:25:31 10° NNW 02:27:56 21° NW 02:27:56 21° NW
ADEOS 3.5 02:25:49 10° N 02:30:57 60° WNW 02:36:04 10° SSW
ATLAS 3B R/B 2.6 02:26:34 11° SW 02:32:46 62° WNW 02:39:19 10° NNE
ISS -1.8 02:34:11 17° NNW 02:34:11 17° NNW 02:35:58 10° NNE
Cosmos 1300 3.9 02:31:25 10° N 02:35:06 44° E 02:38:44 10° SSE
Cosmos 1689 Rocket 4.3 02:33:15 10° SE 02:35:48 27° ENE 02:38:20 10° NNE
USA 290 2.0 02:33:36 11° SSW 02:36:40 77° WNW 02:39:53 10° NNE
Geosat 3.9 02:33:21 10° SSE 02:38:21 77° WSW 02:43:24 10° NNW
CZ-2C R/B 2.2 02:38:39 21° SW 02:38:59 22° SSW 02:41:34 10° SSE
Cosmos 1302 Rocket 4.0 02:34:00 10° NNW 02:39:13 61° WSW 02:44:23 10° S
Cosmos 2369 4.3 02:36:11 10° NNW 02:41:47 60° ENE 02:47:19 10° SSE
Cosmos 2082 Rocket 2.1 02:37:18 10° SSW 02:42:49 63° WNW 02:48:24 10° NNE
Cosmos 1484 Rocket 3.3 02:41:18 10° N 02:44:48 35° WNW 02:48:15 10° SW
Cosmos 1626 2.7 02:43:32 10° SSW 02:46:54 34° W 02:50:18 10° NNW
Cosmos 2228 3.0 02:42:33 10° N 02:46:56 86° W 02:51:18 10° S
COSMO-SKYMED 1 3.2 02:44:21 10° SSE 02:48:36 59° ENE 02:52:52 10° N
Cosmos 1606 Rocket 3.5 02:44:07 10° N 02:48:37 88° W 02:53:04 10° S
ADEOS Rocket 3.6 02:44:37 10° SSW 02:49:16 27° W 02:53:52 10° NW
METEOR-M 4.2 02:45:23 10° N 02:50:33 53° WNW 02:55:43 10° SSW
CZ-4B R/B 2.9 02:47:01 10° N 02:51:07 87° W 02:55:23 10° SSW
Meteor 2-5 Rocket 3.9 02:46:46 10° SSW 02:52:10 47° WNW 02:57:43 10° N
H-2A R/B 3.8 02:50:42 10° SW 02:52:30 15° WSW 02:52:30 15° WSW
H-2A R/B 4.3 02:51:33 10° NNE 02:55:10 39° E 02:58:46 10° SSE
Cosmos 1656 4.1 02:51:54 10° NW 02:57:12 41° WSW 03:02:27 10° S
Lacrosse 5 rocket 3.1 03:00:14 12° NW 03:00:44 12° NW 03:02:18 10° NNW
Cosmos 1428 Rocket 4.5 02:54:30 10° S 03:00:46 81° W 03:07:00 10° N
ATLAS CENTAUR R/B 3.8 02:57:57 10° SSE 03:01:18 25° ESE 03:04:29 10° ENE
Okean 1-7 Rocket 3.6 03:01:46 10° S 03:06:18 77° W 03:10:51 10° N
Meteor 1-31 Rocket 3.8 03:05:29 10° NNW 03:08:44 25° WNW 03:11:59 10° SW
Cosmos 2026 Rocket 4.1 03:05:35 10° SSW 03:11:50 62° W 03:18:10 10° N
Cosmos 1697 Rocket 2.8 03:09:12 10° NNW 03:14:44 57° WSW 03:20:14 10° S
Meteor PRIRODA 3.9 03:11:25 10° N 03:14:54 44° WNW 03:18:24 10° SSW
Cosmos 2058 Rocket 3.1 03:13:52 10° N 03:18:22 86° W 03:22:49 10° S
Cosmos 220 Rocket 4.2 03:15:03 10° NNW 03:19:23 55° WSW 03:23:40 10° S
Cosmos 1992 Rocket 4.0 03:15:05 10° NNW 03:20:15 66° WSW 03:25:23 10° S
PSLV R/B 4.0 03:16:40 10° NNE 03:20:48 89° ESE 03:24:53 10° SSW
Spot 2 4.3 03:16:20 10° NNE 03:20:56 84° WNW 03:25:48 10° SSW
Cosmos 1892 Rocket 4.3 03:19:40 10° SW 03:23:30 30° WNW 03:27:22 10° NNW
CZ-4B R/B 3.2 03:21:34 10° SW 03:23:41 15° W 03:25:47 10° WNW
Cosmos 1455 4.3 03:21:04 10° NNE 03:24:33 32° E 03:28:02 10° SE
Cosmos 2084 4.3 03:25:23 10° WSW 03:29:09 29° NW 03:33:00 10° N
